Flag for United Arab Emirates Weather past 2 weeks in Abu Dhabi, Abu Dhabi, United Arab Emirates

Now
97 °F

Clear.


Feels Like: 103 °F
Forecast: 97 / 107 °F
Wind: 3 mph from Southeast

Location: Abu Dhabi Bateen Airport

Current Time: Jul 31, 2015 at 12:52:50 AM

Latest Report: Jul 31, 2015 at 12:00 AM


Visibility: 5 mi

Pressure: 29.45 "Hg

Humidity: 42%

Dew point: 70 °F

Historic Weather in Abu Dhabi — Graph

°F

Abu Dhabi temperature yesterday

Maximum temperature yesterday: 113 °F (at 3:00 PM)
Minimum temperature yesterday: 95 °F (at 9:00 PM)
Average temperature yesterday: 101 °F

Past Weeks' High & Low Weather Summary

 TemperatureHumidityPressure
High117 °F (Jul 28, 3:00 PM)94% (Jul 18, 5:00 AM)29.53 "Hg (Jul 18, 5:00 AM)
Low86 °F (Jul 18, 7:00 AM)6% (Jul 20, 2:00 PM)29.27 "Hg (Jul 17, 5:00 PM)
Average99 °F48%29.42 "Hg
* Reported Midnight between Jul 15 and Jul 16 — Midnight between Jul 30 and Jul 31, Abu Dhabi, Weather by CustomWeather, © 2015

Note: Actual official high and low records may vary slightly from our data, if they occured in-between our weather recording intervals... More about our weather records

Advertising

Abu Dhabi weather history for previous 24 hours

 ConditionsComfort  
Time TempWeatherWind HumidityBarometerVisibility
12:00 AM
Fri, Jul 31
97 °FClear.3 mph42%29.45 "Hg5 mi
11:00 PM
Thu, Jul 30
97 °FClear.2 mph50%29.47 "Hg5 mi
10:00 PM97 °FClear.5 mph53%29.47 "Hg4 mi
9:00 PM95 °FClear.6 mph60%29.45 "Hg4 mi
8:00 PM99 °FClear.7 mph50%29.45 "Hg4 mi
7:00 PM100 °FClear.7 mph42%29.42 "Hg4 mi
6:00 PM102 °FClear.10 mph35%29.42 "Hg4 mi
5:00 PM104 °FClear.12 mph29%29.42 "Hg4 mi
4:00 PM109 °FClear.13 mph21%29.45 "Hg4 mi
3:00 PM113 °FClear.14 mph15%29.45 "Hg4 mi
2:00 PM111 °FClear.9 mph17%29.47 "Hg4 mi
1:00 PM109 °FDuststorm.7 mph18%29.47 "Hg3 mi
12:00 PM108 °FDuststorm.7 mph20%29.50 "Hg3 mi
11:00 AM104 °FDuststorm.6 mph21%29.50 "Hg2 mi
10:00 AM100 °FDuststorm.7 mph25%29.53 "Hg2 mi
9:00 AM100 °FDuststorm.6 mph25%29.50 "Hg2 mi
8:00 AM99 °FDuststorm.7 mph25%29.50 "Hg2 mi
7:00 AM97 °FDuststorm.6 mph27%29.50 "Hg2 mi
6:00 AM97 °FDuststorm.7 mph27%29.47 "Hg2 mi
5:00 AM97 °FDuststorm.8 mph25%29.47 "Hg2 mi
4:00 AM99 °FDuststorm.9 mph25%29.47 "Hg2 mi
3:00 AM99 °FDuststorm.10 mph29%29.45 "Hg2 mi
2:00 AM100 °FClear.9 mph29%29.45 "Hg4 mi
1:00 AM99 °FPassing clouds.5 mph39%29.47 "HgN/A
12:00 AM99 °FClear.12 mph39%29.47 "Hg10 mi
Weather by CustomWeather, © 2015

See weather overviewHow to use our weather pages